Wind_Speed
23 23 23 22 22 22 22 22 21 20 19 18 18 17 17 17 16 16 16 16 16 16 16 16 17 17 17 17 17 17 16 16 17 17 16 15 15 13 14 14 15 14 12 10 11 10 9 9 9 9 9 8 8 7 8 12 11 10 12 12 13 13 11 7 4 2 3 4 4 4 2 0 2 5 5 9 7 7 6 8 18 18 12 12 13 11 12 16
23 23 22 22 22 21 22 22 21 20 19 18 18 17 17 16 16 15 15 14 14 15 15 15 16 16 16 16 16 16 16 16 16 16 15 14 14 14 14 14 15 15 13 10 10 10 10 9 8 8 7 7 7 6 8 12 13 13 13 13 15 12 7 6 6 3 1 4 3 3 4 1 3 6 6 8 8 8 7 12 19 18 13 12 12 10 13 18
23 22 22 22 21 21 21 21 20 20 19 18 17 17 16 15 15 14 14 14 14 14 14 15 15 15 15 15 15 15 15 15 15 15 14 14 14 14 14 14 15 15 15 12 10 10 10 8 7 7 6 7 8 8 8 11 13 13 14 15 16 9 7 6 6 7 7 5 4 2 3 2 4 7 7 7 8 7 10 18 20 16 13 11 11 12 15 18
23 22 22 21 21 21 21 21 20 20 19 18 17 16 15 15 15 14 14 14 14 14 14 14 14 14 14 14 14 13 13 12 14 14 13 14 14 14 14 14 15 16 16 15 11 10 10 7 6 7 7 8 9 10 10 11 12 12 15 17 15 8 10 7 6 7 10 9 7 5 5 7 7 8 6 7 10 10 10 15 17 16 13 10 10 15 17 17
22 22 22 21 21 21 21 21 20 19 19 17 16 15 15 14 14 14 14 13 13 13 13 13 13 13 13 13 13 12 9 7 13 14 10 11 13 13 14 14 15 16 16 16 13 11 12 10 8 9 10 10 11 12 13 12 12 12 14 17 16 12 10 7 6 8 13 15 14 11 10 11 10 10 8 9 11 11 13 10 8 9 8 8 9 16 18 17
22 22 22 21 21 21 21 21 20 20 18 17 16 15 15 14 14 14 13 13 12 12 12 12 12 12 12 13 11 11 9 6 10 11 9 10 11 11 12 13 15 16 17 16 14 12 11 12 11 12 11 11 12 13 14 13 14 14 14 15 15 14 12 9 7 7 10 12 12 11 11 10 10 10 9 10 10 8 12 13 9 6 6 9 8 17 19 17
22 22 22 22 22 21 21 21 21 20 19 17 16 15 15 14 14 13 13 12 11 11 11 11 12 11 11 11 10 11 13 11 12 10 9 9 9 10 10 11 14 15 16 16 15 13 11 12 13 12 11 11 12 13 14 13 14 16 15 14 13 12 13 13 10 10 10 9 9 10 11 11 10 10 9 9 10 7 7 11 14 11 9 8 9 19 19 16
22 22 21 22 22 22 21 21 21 20 18 17 16 15 15 14 13 13 13 12 12 11 11 11 11 11 11 10 10 10 10 14 16 11 10 10 8 8 8 10 12 14 16 16 15 13 12 12 13 13 12 12 11 12 13 13 15 17 17 15 14 12 11 13 13 13 12 11 11 11 13 13 12 12 12 10 9 9 5 6 13 14 10 6 11 18 18 16
22 21 21 22 22 22 21 21 20 19 18 17 16 16 15 14 13 13 13 12 12 11 11 11 11 11 10 9 10 7 6 15 17 12 12 12 10 8 8 8 10 13 15 16 16 14 13 11 12 13 13 12 10 11 13 14 14 15 17 16 15 14 13 12 13 13 13 12 12 12 13 13 13 13 15 14 12 11 8 5 10 14 13 10 12 17 17 16
21 21 20 21 22 22 21 21 20 19 18 17 16 15 15 14 13 13 13 12 11 11 11 11 11 11 10 10 10 7 7 15 15 12 13 13 13 11 10 9 10 12 14 16 16 15 13 9 10 12 12 13 11 10 12 14 13 10 11 14 15 15 15 14 13 13 13 13 12 13 14 13 13 14 16 15 13 13 10 9 11 12 13 13 13 19 18 17
20 20 19 20 21 21 21 20 20 19 17 16 15 15 14 13 13 13 12 11 11 11 11 10 11 11 11 12 11 9 9 14 14 13 12 12 12 11 11 11 10 12 13 13 14 14 14 10 10 11 10 13 11 9 12 15 15 11 10 13 14 15 16 16 16 14 13 13 13 13 14 14 14 15 18 16 14 14 12 11 12 12 15 14 13 20 20 17
20 19 19 19 20 21 20 19 19 18 17 16 15 14 14 13 13 12 12 11 10 10 10 10 11 11 12 13 12 12 13 14 15 12 10 11 11 11 11 12 11 13 12 8 10 14 15 12 13 15 10 9 10 8 11 14 15 15 13 14 15 15 17 19 18 17 15 14 12 11 14 15 17 18 19 16 14 14 13 10 10 16 19 13 13 20 20 17
19 18 18 19 19 20 20 19 18 18 17 16 15 14 14 13 13 12 12 11 10 10 10 10 11 11 12 11 12 15 15 15 15 12 9 10 10 10 11 11 12 14 15 11 10 13 17 17 18 21 12 8 9 7 9 11 12 15 14 15 16 16 18 20 19 17 16 14 10 9 12 15 18 21 19 13 13 16 14 12 12 18 17 11 14 18 17 17
19 18 18 18 19 19 19 18 17 17 17 16 15 14 14 13 13 12 11 11 10 10 10 11 11 12 12 11 13 16 15 15 15 12 11 10 10 10 10 11 12 14 16 17 15 15 19 22 21 22 17 13 12 9 9 10 11 13 14 15 15 15 19 19 19 18 15 14 11 10 12 17 18 19 20 15 15 18 14 13 16 19 16 11 15 18 18 18
18 18 17 18 18 18 18 17 17 16 16 16 15 14 14 13 13 12 11 10 10 10 11 12 12 13 14 12 14 15 13 14 13 12 13 10 10 10 9 10 11 13 15 16 18 17 17 20 20 21 18 15 14 10 9 11 13 13 13 15 15 16 17 12 16 18 13 12 13 12 14 17 17 14 19 19 17 19 14 11 16 21 19 14 14 17 20 22
18 18 17 17 18 17 17 17 16 16 16 15 14 14 14 14 13 12 12 11 11 11 12 13 13 15 15 13 17 18 14 14 14 13 12 11 9 8 8 9 9 11 13 14 16 15 14 17 18 19 16 13 14 13 12 13 15 15 15 15 14 16 13 7 17 19 13 11 12 13 14 16 13 9 9 15 15 17 15 13 15 21 19 14 13 15 21 22
18 18 17 17 17 17 17 15 15 15 15 14 14 14 14 14 13 12 12 12 12 12 13 14 14 17 16 17 20 17 13 15 16 14 11 11 9 7 8 8 7 9 10 12 14 13 12 14 15 16 15 15 15 14 16 16 15 16 16 15 14 16 15 10 17 20 16 13 11 13 12 16 16 8 5 12 14 15 14 15 16 19 19 17 17 17 19 21
18 18 17 17 16 16 16 15 15 14 14 14 13 14 13 13 13 13 13 13 14 14 14 15 16 14 13 16 16 10 12 16 16 15 12 11 10 11 11 9 6 8 8 9 11 10 11 12 12 13 14 16 16 16 18 17 15 15 15 15 14 15 17 12 13 18 16 13 11 12 12 14 17 12 8 10 13 15 16 17 17 19 22 23 22 20 19 20
18 17 17 16 16 15 15 14 14 14 14 13 13 13 12 12 12 12 13 15 16 13 9 11 15 12 6 7 8 4 11 15 13 14 14 13 13 15 15 11 7 9 9 9 10 9 11 11 13 15 16 17 18 19 20 17 16 15 14 15 15 15 17 15 10 15 12 9 9 11 13 13 15 14 12 10 12 14 15 16 17 19 23 25 24 23 22 21
17 17 17 15 15 14 14 14 14 14 14 13 13 12 11 11 8 9 14 16 16 13 9 8 12 12 5 4 9 9 14 14 9 11 13 14 14 15 16 12 10 11 12 12 11 9 12 14 15 17 17 17 18 19 19 19 20 17 15 14 14 15 17 15 13 15 13 11 9 9 12 13 14 16 16 14 15 17 16 16 17 19 22 24 26 25 22 21
16 16 15 14 13 13 13 13 13 14 13 13 12 11 12 12 8 9 13 11 11 13 14 12 10 11 8 5 9 14 14 13 10 10 13 14 14 15 16 15 15 15 15 15 11 10 13 16 17 17 16 16 17 17 18 21 23 17 13 14 13 13 13 13 13 13 12 12 10 10 13 16 16 17 18 18 18 20 19 18 18 19 20 23 24 23 22 22
15 14 14 13 12 12 12 12 13 13 13 13 12 12 14 13 12 13 14 11 9 12 14 15 13 13 13 10 12 15 11 11 11 13 15 15 15 16 16 16 17 17 15 14 14 13 14 18 19 18 16 16 16 15 14 18 21 16 11 16 17 12 11 11 13 12 9 8 8 10 14 18 19 19 20 19 20 22 21 18 18 20 21 22 24 22 23 25
14 13 13 12 11 11 12 12 12 12 12 12 12 13 13 11 11 13 14 13 10 11 11 14 15 15 17 16 17 18 14 13 13 15 19 18 16 16 16 17 17 17 15 15 18 16 15 20 20 17 17 17 17 14 11 11 14 13 11 16 19 16 14 14 15 17 16 11 7 9 16 19 19 18 18 17 18 21 22 21 19 20 21 22 24 24 25 27
12 12 12 12 11 11 12 12 12 12 12 12 11 13 12 10 10 11 12 11 9 9 10 14 16 15 15 16 18 19 16 15 14 17 22 20 17 16 16 17 16 16 17 17 19 18 18 18 13 15 17 17 16 14 14 13 12 14 15 18 20 18 18 18 16 17 18 14 9 10 15 19 19 19 21 20 20 22 22 23 21 21 22 22 24 24 24 25
11 11 11 12 11 11 12 12 12 12 12 12 12 12 11 10 9 9 9 8 8 9 10 12 14 14 16 16 17 16 14 16 16 17 22 19 17 18 16 17 16 17 18 18 18 19 21 17 9 11 13 12 13 13 15 16 15 16 17 18 20 19 18 19 18 17 20 19 13 11 12 14 18 22 24 24 24 25 24 24 23 22 21 21 22 23 24 24
11 11 12 12 11 12 12 11 12 12 10 11 12 11 10 10 8 7 8 7 9 12 13 13 13 13 16 16 14 12 12 18 18 18 20 19 17 18 16 15 17 17 17 17 18 18 19 18 13 13 12 9 11 14 15 16 17 17 16 15 17 19 19 19 19 18 19 17 14 14 13 12 15 17 19 20 21 23 23 23 23 21 21 21 21 22 23 23
10 11 12 12 12 12 12 11 12 12 10 10 11 10 9 9 7 6 7 7 8 13 14 12 13 12 12 11 13 14 8 13 17 20 20 19 17 19 17 16 16 17 16 16 17 17 17 17 15 14 16 15 16 16 16 16 17 16 14 14 15 17 17 17 19 19 17 16 17 19 17 16 19 17 15 17 17 16 18 19 20 18 18 19 20 20 21 20
11 12 12 12 12 12 13 12 13 14 12 9 10 11 9 8 8 8 6 5 5 12 13 13 14 12 10 9 14 15 5 5 14 19 20 18 17 20 19 19 16 15 16 17 18 17 15 16 14 12 14 16 17 16 15 16 17 17 16 15 13 13 13 13 16 18 17 17 19 21 19 16 18 18 16 18 19 18 18 16 16 16 15 19 21 20 23 21
11 12 12 12 12 12 13 13 14 13 10 8 9 11 10 9 10 9 4 4 7 11 11 12 13 13 12 10 14 15 9 8 9 14 19 17 18 21 18 18 17 16 16 18 19 15 13 15 16 14 15 16 16 14 14 16 17 16 16 15 10 10 13 14 14 16 16 15 18 20 19 14 13 17 16 14 16 15 14 17 19 19 16 18 20 20 23 23
11 11 12 12 12 12 12 12 14 12 9 10 11 10 11 12 12 8 4 3 8 10 11 13 12 12 13 12 14 16 14 10 6 10 18 17 18 21 16 15 16 17 17 20 20 17 12 12 14 16 17 16 16 15 14 14 14 14 13 12 9 10 15 15 15 16 12 12 18 20 20 17 12 14 15 14 15 12 9 17 22 24 21 20 21 21 21 22
11 11 12 12 11 11 12 13 14 14 13 13 12 11 13 13 10 7 4 5 8 10 11 12 11 12 15 15 15 16 15 13 11 13 17 16 17 21 17 14 16 16 17 20 21 19 17 14 13 15 14 12 13 15 15 14 14 14 12 11 10 12 14 15 16 16 10 10 17 20 21 19 13 13 15 12 11 12 15 17 19 23 23 21 24 25 24 25
10 11 12 11 11 11 12 12 12 13 15 14 14 15 13 10 8 10 6 5 7 11 11 11 12 13 16 15 16 17 15 15 16 14 15 17 17 21 21 17 17 16 16 18 20 20 21 20 18 16 16 15 15 15 17 17 15 15 15 14 12 10 10 11 10 10 10 11 16 18 17 16 14 13 11 8 7 6 14 17 17 20 20 16 19 22 23 26
11 11 12 11 10 11 12 11 11 13 15 15 16 17 11 5 9 12 10 6 6 7 9 12 12 12 14 14 15 17 15 15 17 15 15 17 16 19 23 20 18 17 15 15 18 20 18 19 22 19 16 16 17 17 16 16 16 16 17 16 13 9 6 7 6 7 9 11 15 15 13 13 13 4 7 5 7 2 6 10 13 19 20 17 17 18 20 22
11 11 11 10 11 12 12 12 14 16 17 17 17 15 7 7 8 11 11 8 8 5 6 10 9 9 13 13 13 15 14 14 17 15 15 17 17 17 21 21 20 19 17 14 16 19 16 15 20 21 17 15 18 20 17 14 15 17 18 18 17 14 9 6 6 5 5 6 11 12 8 9 9 1 9 6 2 1 5 9 11 13 16 18 18 18 19 19
12 12 12 11 12 13 14 14 16 18 18 19 18 11 9 10 9 10 9 5 7 6 7 9 8 9 12 13 12 14 14 14 16 17 16 17 18 17 19 21 22 22 20 15 13 15 16 16 17 19 18 16 16 19 19 17 15 15 16 19 20 18 15 11 9 9 7 5 9 10 8 6 1 2 2 3 2 5 6 7 10 11 10 12 14 18 20 17
12 12 12 12 13 14 15 16 18 19 19 20 15 10 12 12 6 4 4 3 5 6 6 8 10 11 12 13 12 12 14 13 14 17 17 17 18 17 17 18 20 23 23 18 13 13 15 15 16 18 18 18 17 16 18 18 15 12 14 19 19 17 17 13 11 14 12 6 7 9 8 9 5 2 1 6 8 7 5 4 8 9 8 8 9 13 16 15
11 11 12 12 13 14 16 17 19 19 19 19 14 12 12 11 5 1 2 1 4 5 4 6 10 11 12 14 13 13 13 12 12 14 14 16 17 16 16 16 18 22 22 19 16 14 14 12 13 16 17 18 18 16 16 19 17 14 13 15 15 15 17 15 10 10 10 7 6 10 12 11 7 3 3 5 5 3 2 4 6 8 8 7 7 9 10 11
11 11 12 12 13 14 16 17 18 19 20 18 14 14 11 8 5 2 3 1 3 4 7 9 8 9 12 12 11 13 13 11 12 14 14 13 14 14 14 12 14 18 19 19 18 14 12 12 13 15 16 15 17 17 17 19 20 19 16 12 12 12 13 13 10 6 7 6 4 10 14 4 6 6 5 6 5 3 2 4 6 7 7 8 8 8 9 9
13 12 13 13 13 14 16 17 18 19 20 16 11 11 10 7 4 4 5 5 4 4 8 9 5 6 10 10 7 10 12 11 11 14 13 11 12 14 12 8 8 13 13 14 18 14 10 10 12 14 14 12 14 18 18 17 18 20 19 16 15 13 10 10 11 9 8 7 4 8 10 2 9 5 3 3 2 3 5 8 10 11 9 9 11 11 12 11
15 12 12 13 13 15 16 17 18 20 20 16 10 9 9 7 4 4 6 7 7 6 7 7 5 5 7 9 7 4 7 9 9 10 10 9 7 8 11 8 6 11 14 10 11 12 10 10 10 11 12 11 13 16 17 15 15 17 19 20 18 16 14 11 10 12 12 7 4 6 4 5 7 3 4 4 1 4 8 12 13 13 12 11 9 9 12 11
15 11 10 13 13 14 16 17 19 21 19 14 9 8 7 6 3 3 6 7 7 6 5 5 4 3 5 9 8 4 4 8 9 8 9 9 6 5 10 10 3 7 14 10 6 7 6 8 10 11 11 12 12 13 13 12 11 14 17 18 18 17 17 14 10 14 17 12 8 7 1 5 4 2 4 3 3 7 9 9 9 8 7 8 7 8 9 8
15 10 10 13 13 14 16 16 17 17 14 11 8 5 8 9 4 1 4 6 6 5 5 5 4 2 3 6 7 6 7 10 9 7 5 6 7 7 11 15 8 4 8 10 9 8 8 7 9 11 12 12 12 11 11 10 10 13 13 12 14 12 11 11 9 9 12 13 11 6 2 6 5 3 3 3 7 10 6 4 3 2 3 6 7 7 6 4
13 10 12 15 14 15 17 15 13 13 12 10 8 5 7 9 5 1 2 6 6 4 4 5 4 4 5 5 5 4 4 8 9 5 1 3 5 5 8 13 14 10 9 10 11 11 11 10 10 12 11 11 13 13 12 11 9 9 9 9 9 8 12 13 12 12 8 7 5 2 2 3 5 3 5 7 9 8 5 3 2 1 2 4 5 6 4 2
11 10 14 16 16 16 17 13 11 12 11 8 8 7 5 6 6 4 2 5 7 4 4 5 3 5 6 4 5 5 2 4 7 3 2 4 3 2 2 5 9 12 12 10 11 11 10 9 9 10 7 7 11 12 11 11 9 9 9 9 9 10 13 16 14 10 8 7 4 1 3 3 6 4 7 10 7 2 3 3 2 2 2 2 2 2 2 1
9 11 14 16 17 16 14 11 8 9 11 8 8 8 6 5 7 7 3 4 7 3 3 6 4 4 6 3 5 8 5 4 5 4 3 3 2 1 2 2 3 7 9 9 11 11 9 8 7 6 5 5 5 5 6 8 10 10 7 7 10 12 13 13 12 6 5 9 8 1 6 8 9 5 7 9 7 1 2 3 3 4 3 2 3 3 1 2
11 14 14 15 17 14 10 9 6 5 9 9 7 8 7 4 5 8 5 3 5 4 2 5 5 5 6 4 4 7 8 8 8 6 4 2 1 1 1 2 3 5 6 6 7 7 8 8 7 7 9 7 4 3 5 7 11 10 5 6 8 10 11 9 7 4 3 7 9 1 8 11 9 5 7 10 9 5 3 3 2 2 2 2 4 3 2 3
12 14 15 14 14 12 9 7 4 4 8 9 6 6 8 4 2 7 8 3 4 5 3 4 4 3 5 5 4 5 7 9 9 8 6 5 3 2 2 2 3 6 6 5 4 4 5 7 7 7 9 7 7 8 6 5 9 10 9 9 6 6 9 7 5 5 2 4 4 2 10 14 11 8 10 11 9 5 3 2 2 3 3 3 6 6 5 5
11 12 12 12 10 8 8 9 7 6 7 7 5 5 6 6 4 5 6 2 2 3 2 4 5 2 4 6 4 5 7 7 7 7 7 5 3 4 4 4 3 3 4 3 4 5 4 6 6 6 8 7 6 8 7 4 5 6 7 7 2 4 6 5 3 4 2 2 4 6 10 14 14 16 14 10 7 3 2 2 2 4 5 6 7 8 8 8
12 12 10 9 8 6 7 9 8 7 6 6 6 5 5 6 5 4 4 3 3 4 1 3 5 3 3 4 4 4 5 6 5 5 7 7 4 4 4 5 5 2 1 3 7 7 4 5 6 5 7 6 4 5 6 6 5 3 2 2 6 6 3 1 1 1 1 4 7 7 9 12 14 15 12 9 7 4 4 5 6 7 7 7 8 8 8 9
12 12 9 8 9 8 8 8 8 7 6 6 6 5 4 6 6 5 4 3 2 4 3 3 4 3 2 3 4 4 6 8 8 3 5 9 7 5 5 5 6 6 4 3 8 7 3 5 6 5 6 6 6 7 6 5 5 2 6 5 5 7 6 2 2 2 2 4 7 7 7 8 9 9 8 8 8 6 5 5 7 8 8 8 8 7 7 9
9 11 10 8 7 9 8 7 7 7 5 5 5 6 5 6 5 3 6 5 1 1 3 2 4 5 4 3 3 3 5 8 8 3 3 5 4 3 4 5 6 4 2 2 6 7 5 4 5 5 7 7 7 7 6 6 7 4 3 3 4 6 6 3 2 2 1 3 8 9 6 6 7 7 7 8 8 7 5 4 5 6 5 6 6 7 8 9
9 11 11 7 7 10 8 5 5 6 5 5 7 7 6 5 6 3 5 7 3 1 4 5 7 6 4 4 4 5 7 7 7 8 7 6 5 5 5 4 4 5 5 4 6 6 4 3 4 4 6 7 8 9 8 9 8 3 2 3 5 6 4 1 1 2 1 2 4 7 7 6 7 6 6 6 6 5 4 4 4 4 4 6 7 8 9 8
Wind_Direction
250 250 249 248 246 245 246 245 243 241 240 239 239 239 240 241 243 245 247 249 252 253 254 253 254 253 252 253 253 252 249 246 243 242 241 241 242 236 229 227 223 220 223 223 223 223 216 217 212 211 207 203 209 185 196 221 217 222 236 240 241 242 244 276 330 142 106 68 56 38 1 36 292 300 301 301 276 253 271 242 249 247 242 248 245 248 216 199
248 248 247 246 245 244 243 242 240 238 237 236 236 236 235 236 237 238 240 242 246 247 248 249 250 250 250 251 251 251 250 249 246 244 242 241 239 234 229 225 221 217 219 220 217 218 212 210 206 204 197 190 214 207 202 221 221 216 224 237 238 244 263 303 311 245 244 352 11 13 350 266 272 301 293 304 294 265 256 232 247 255 257 259 239 226 199 192
247 246 246 245 244 244 242 240 239 237 236 234 233 233 231 232 231 233 234 236 238 240 241 241 243 245 246 247 248 250 250 251 251 249 242 239 236 231 227 222 219 215 215 216 212 211 206 199 197 195 182 184 212 218 210 218 224 219 222 234 233 252 312 303 287 265 260 307 335 328 333 305 290 299 287 303 303 279 262 245 251 261 269 267 231 214 200 194
247 246 245 244 243 244 244 241 239 237 235 232 232 231 230 230 229 231 230 231 232 233 236 236 238 240 241 243 245 246 248 254 253 248 242 236 232 228 225 219 215 213 214 215 211 208 195 183 200 196 182 200 213 211 211 215 222 220 225 235 234 267 317 291 265 270 258 260 274 273 290 306 298 285 281 297 288 287 289 258 253 263 274 276 228 202 196 198
248 247 246 245 244 244 244 243 241 239 237 233 231 230 229 229 229 230 229 230 230 230 232 232 235 236 239 240 239 241 238 252 250 242 237 231 227 226 222 217 213 210 212 213 213 211 189 174 207 212 196 210 218 215 219 221 225 227 232 241 247 271 296 283 270 271 264 260 263 269 278 289 286 276 276 280 277 299 308 277 268 282 282 290 230 192 189 196
248 248 248 247 245 245 245 245 243 241 239 236 233 231 230 228 228 229 229 230 228 230 231 231 234 233 237 237 235 234 208 200 241 236 227 225 221 222 219 213 212 209 209 210 210 211 193 179 201 214 207 215 222 223 226 225 227 234 240 244 254 266 263 265 287 280 274 272 266 266 265 272 278 274 269 265 264 297 304 282 282 302 310 309 236 193 188 191
250 250 249 248 247 246 245 246 245 243 241 237 235 232 231 229 227 229 228 229 228 229 230 231 234 232 236 235 232 229 208 209 235 231 224 222 215 217 216 211 209 207 206 206 207 208 199 188 197 210 214 223 227 229 231 230 229 234 242 246 252 262 255 256 269 268 275 281 269 261 256 263 269 265 263 263 255 255 290 284 275 281 305 308 219 193 189 187
252 251 251 251 249 248 247 247 247 245 241 238 236 234 233 231 229 230 229 229 227 227 230 231 233 233 234 231 230 228 221 233 236 229 228 218 204 206 207 207 204 203 202 201 203 202 197 191 196 207 214 223 232 234 232 233 234 236 242 247 250 256 257 256 260 263 270 271 267 263 259 261 259 257 258 258 246 234 251 284 277 279 283 262 202 193 189 188
253 252 252 252 251 250 248 248 248 246 242 239 237 235 233 232 230 230 229 227 227 226 227 230 232 232 230 228 224 213 224 242 236 227 230 221 212 215 207 203 199 197 197 196 197 194 190 191 200 206 215 229 243 246 233 230 235 236 240 246 250 255 257 258 260 262 263 262 263 263 261 259 254 252 252 252 242 233 240 252 270 279 271 247 210 200 194 194
253 252 253 253 253 252 251 250 250 248 244 240 238 236 233 231 228 227 227 226 225 225 226 227 230 230 227 224 212 194 229 248 243 230 228 228 225 225 215 203 195 192 191 191 191 190 182 183 207 216 232 243 250 249 228 225 236 240 242 246 251 254 254 256 258 257 256 256 257 257 260 257 251 249 247 249 241 235 241 234 244 259 256 249 218 206 204 199
252 252 251 253 254 253 252 251 251 249 246 241 239 237 233 230 227 226 227 226 224 224 226 225 229 229 227 225 207 196 233 247 247 236 228 233 228 223 217 204 195 190 185 185 189 188 181 191 217 219 235 241 238 249 237 231 240 250 256 255 257 256 254 253 251 251 250 252 255 254 259 256 248 245 244 246 237 230 233 233 236 228 228 240 219 207 210 204
250 251 250 251 252 252 251 251 251 250 247 243 239 238 236 232 229 229 228 227 226 224 226 227 230 229 227 228 211 208 232 241 248 248 232 235 230 222 218 205 199 189 173 181 208 198 186 203 220 206 217 235 224 250 250 236 241 248 256 260 261 260 257 253 246 246 245 249 254 248 254 254 244 242 243 244 234 226 227 224 225 222 227 238 216 205 208 207
249 249 248 249 250 251 250 249 249 250 249 244 241 240 237 235 232 231 231 229 229 226 227 229 231 231 230 230 220 220 233 241 249 255 241 237 233 224 220 208 203 193 173 176 217 214 198 205 210 200 211 235 223 255 253 230 238 245 251 256 261 263 257 251 241 235 236 241 239 230 249 256 247 239 234 236 228 221 221 220 226 231 237 242 224 216 211 207
248 247 247 246 247 249 248 247 248 249 249 246 243 242 239 237 235 232 232 230 232 232 232 234 235 237 234 233 235 230 233 242 246 252 248 243 238 231 225 215 209 205 194 187 199 214 211 208 206 201 203 208 219 264 259 232 239 243 247 248 249 257 260 252 230 218 224 229 219 221 254 264 265 248 227 230 231 216 211 218 232 245 253 246 223 218 215 209
247 246 244 243 245 245 245 245 246 248 248 247 244 241 239 237 235 234 233 232 235 237 239 241 240 242 241 240 248 240 232 243 246 245 244 241 242 236 227 223 217 214 212 205 207 215 217 210 207 206 204 206 223 257 255 238 240 237 242 244 237 243 263 256 205 199 215 218 209 221 253 262 275 272 231 228 226 211 207 215 234 253 257 249 231 219 215 210
246 245 242 241 242 242 242 242 244 248 248 247 244 241 238 235 234 234 234 236 238 242 246 247 245 246 244 239 243 240 237 243 244 241 238 234 236 231 229 227 219 221 218 216 220 220 216 210 209 210 213 223 232 240 244 245 239 228 230 242 242 235 249 233 185 193 210 205 201 217 244 256 268 297 229 206 202 202 213 223 238 256 254 246 253 240 220 215
244 243 241 239 239 239 240 240 242 246 245 244 242 239 237 234 235 236 238 241 243 249 249 249 249 245 243 240 241 246 249 245 240 237 233 229 217 199 231 236 211 224 222 218 226 224 219 214 212 212 215 225 229 229 234 240 236 226 224 235 251 247 247 232 190 195 207 202 207 218 235 256 260 272 186 180 191 204 224 233 236 252 253 247 254 249 227 223
243 241 240 238 236 237 237 237 239 241 241 240 238 236 235 236 237 239 244 247 247 251 252 250 243 241 254 249 245 257 251 242 239 233 228 226 200 175 213 234 205 213 217 222 231 222 219 218 214 217 218 220 222 221 223 230 231 225 219 221 240 254 257 254 199 186 196 201 221 232 231 255 263 253 213 201 214 222 235 243 237 240 250 254 249 243 236 235
241 239 238 236 234 234 233 233 234 235 235 233 232 232 232 237 241 246 250 250 249 246 250 255 232 223 273 246 206 207 230 234 235 227 224 223 204 184 202 217 201 207 209 220 231 213 209 215 212 219 222 219 220 221 223 230 233 235 243 235 237 247 248 254 215 175 180 194 214 238 235 247 262 255 241 234 232 230 232 238 239 234 241 253 252 242 237 238
239 237 236 234 232 231 229 228 228 229 229 227 228 225 226 228 234 260 257 251 253 236 214 245 224 202 221 203 178 195 217 226 222 210 214 217 208 196 201 201 196 207 208 211 223 212 204 212 215 218 221 220 221 224 229 237 241 254 282 275 259 254 241 237 223 203 209 215 213 237 246 251 256 255 252 250 245 244 238 234 238 235 232 244 255 256 250 248
237 236 233 232 230 227 225 223 221 224 223 223 223 218 223 220 211 246 253 246 251 231 210 224 225 197 197 193 199 217 224 227 213 197 211 213 201 197 200 197 196 208 213 210 216 211 209 220 224 223 224 225 227 227 231 241 248 261 280 271 264 259 246 236 228 214 201 204 221 243 257 260 256 252 253 253 251 248 246 238 234 236 234 237 248 256 255 254
233 232 231 230 227 224 221 217 218 220 220 222 219 217 225 226 221 236 248 247 244 236 216 213 220 213 209 198 194 209 216 219 207 193 207 210 195 196 202 201 199 208 215 211 214 209 211 227 229 225 227 229 231 231 231 240 249 257 257 250 253 255 253 246 237 226 202 207 239 254 263 262 255 252 249 248 248 246 249 247 237 236 237 239 243 246 244 246
229 227 227 226 222 220 216 214 214 215 218 218 218 222 227 230 231 236 248 252 244 248 236 216 220 222 219 212 208 216 212 206 204 194 206 211 197 192 199 204 204 209 214 210 214 210 215 234 230 220 227 230 231 229 228 243 248 247 242 241 246 248 253 253 247 243 240 244 253 267 277 270 259 257 250 245 246 245 249 250 243 238 238 241 246 246 243 246
226 223 223 221 217 215 212 211 209 211 215 215 219 228 231 231 233 237 247 251 245 243 232 220 222 224 222 217 222 233 221 206 206 201 212 214 197 192 197 205 208 211 215 212 215 217 229 245 232 215 225 226 225 224 224 240 248 245 244 242 244 246 248 252 255 254 251 250 247 261 277 271 259 255 251 250 251 249 249 250 246 240 240 243 246 247 245 247
221 220 219 217 214 211 211 207 204 209 211 212 218 223 231 232 231 238 238 247 248 220 206 211 211 211 216 214 220 228 217 210 201 198 223 225 195 195 203 206 212 215 217 216 217 224 237 251 236 215 222 212 214 223 223 231 242 246 244 239 243 249 252 254 258 263 256 247 241 241 254 262 254 248 249 251 250 247 243 242 244 242 240 242 245 248 246 243
215 216 217 214 211 209 208 203 204 208 208 217 220 217 229 229 226 231 215 230 239 208 200 207 203 199 208 217 218 202 206 222 203 185 222 232 194 192 207 208 213 218 219 220 221 225 235 245 241 225 221 211 219 230 228 226 233 245 244 236 238 244 252 256 260 269 263 252 252 252 256 272 268 255 253 256 252 247 241 233 235 241 241 241 244 248 248 246
211 212 215 212 209 207 203 200 202 202 202 215 217 214 223 219 215 205 193 232 233 197 194 198 205 203 196 210 202 179 197 234 207 186 208 227 201 193 209 211 214 222 219 222 225 223 231 239 234 225 228 233 234 234 230 222 227 240 239 234 237 239 246 252 255 263 265 261 263 262 262 269 269 266 265 272 270 255 247 239 229 232 242 242 238 234 236 239
209 210 213 212 208 204 199 198 201 203 202 205 209 210 211 205 193 173 184 245 182 170 185 190 203 203 184 196 189 178 182 183 191 192 197 219 209 193 209 213 212 224 218 221 229 223 226 228 215 211 226 234 234 234 230 222 227 238 239 245 250 241 244 255 255 254 254 256 259 257 255 256 258 260 261 269 273 259 247 246 233 226 234 238 230 219 219 225
209 208 212 212 207 204 199 198 202 207 206 201 206 204 198 185 172 170 212 255 156 166 189 189 199 196 182 194 184 185 199 169 188 200 191 210 204 188 209 217 215 231 222 222 236 230 221 223 223 224 228 235 237 235 232 225 225 234 248 265 263 233 241 258 261 256 253 251 253 252 250 256 260 258 258 257 268 268 238 226 229 226 224 231 230 223 219 224
209 208 212 211 208 205 198 199 202 202 200 203 203 194 185 171 165 185 216 194 177 180 189 195 204 196 185 194 191 193 206 199 199 189 185 205 200 190 210 219 221 239 229 219 230 235 225 219 227 231 230 236 238 233 231 228 225 232 249 264 255 233 241 252 253 254 257 250 250 251 248 254 262 263 264 254 258 269 222 207 221 228 235 241 241 239 232 228
208 208 212 211 209 203 196 200 200 195 192 195 191 178 174 168 176 214 190 172 195 172 173 196 198 192 190 194 197 194 200 204 190 177 185 199 200 200 212 218 218 233 237 224 221 230 233 229 228 230 232 234 234 234 231 222 221 229 238 242 244 239 233 237 239 236 240 251 253 254 250 248 251 262 264 245 236 242 226 216 219 226 236 245 245 244 242 240
208 208 212 211 206 200 199 200 198 197 190 183 176 167 165 172 208 227 196 182 202 176 183 196 179 186 194 197 204 193 190 201 193 191 197 195 199 205 208 212 209 212 227 224 216 221 230 234 229 226 234 234 230 236 232 222 219 226 231 228 235 244 230 228 232 227 231 247 251 255 257 250 249 269 267 211 177 205 232 230 222 222 228 239 247 243 243 249
210 210 213 211 203 199 198 193 189 190 182 175 171 163 162 198 223 220 209 187 174 171 192 188 173 187 194 203 212 192 187 202 196 197 202 198 204 209 208 213 210 208 221 223 217 217 224 235 228 218 224 228 226 230 227 218 215 222 228 223 223 235 235 225 228 240 245 253 261 265 267 255 249 308 43 139 182 202 261 255 237 229 232 243 257 253 249 255
210 212 214 208 201 197 194 188 183 180 175 172 168 161 181 241 222 211 218 197 163 149 166 173 177 194 199 214 217 194 193 204 197 197 203 202 207 209 210 215 215 215 225 236 231 220 222 234 227 220 221 219 221 228 227 223 220 222 226 228 228 232 244 248 234 242 254 273 283 278 274 260 239 135 54 57 58 313 264 271 274 261 254 260 270 270 261 253
208 209 210 202 196 191 185 183 179 176 174 169 166 171 209 231 218 207 218 187 158 174 183 184 197 205 208 219 221 207 205 205 199 199 204 206 208 209 210 214 217 217 220 231 231 221 231 238 231 229 227 220 221 225 231 239 236 225 221 226 232 234 242 255 254 256 271 291 275 261 262 279 236 114 269 259 286 294 266 268 289 290 274 266 268 269 261 247
206 204 201 193 190 185 179 179 176 176 175 166 169 202 219 222 224 197 189 129 143 179 182 186 204 215 216 211 213 212 205 207 211 205 203 208 209 211 212 212 213 214 218 225 221 215 229 241 235 229 226 224 226 224 226 237 240 231 223 227 233 236 241 246 251 255 259 260 248 237 238 245 226 134 201 221 235 261 272 285 286 274 263 256 247 246 241 228
199 194 189 181 181 180 176 177 176 176 174 169 183 216 223 229 241 21 35 94 173 191 200 212 207 212 218 206 200 201 199 207 218 214 214 213 212 215 217 216 212 212 218 225 231 233 236 247 243 229 225 223 224 228 226 228 235 237 233 235 238 238 240 243 247 248 243 239 238 230 229 234 226 178 158 190 208 214 232 287 283 257 249 250 232 219 217 213
184 182 182 173 176 178 175 178 179 178 175 176 199 217 222 240 239 253 305 254 184 200 230 244 220 211 227 217 198 195 194 194 200 216 226 218 217 220 217 224 219 211 216 222 231 245 247 251 248 233 230 221 216 229 234 228 230 234 236 240 240 239 239 239 241 247 243 242 243 237 238 252 54 84 139 172 182 174 252 279 270 255 242 238 233 220 215 218
172 175 178 172 174 175 173 177 178 177 178 185 211 219 219 247 252 250 256 214 191 217 234 250 247 227 238 233 214 196 194 194 194 209 224 218 222 223 219 245 239 210 212 222 227 230 221 234 248 235 226 220 216 224 233 231 225 228 234 237 241 249 253 242 239 245 250 249 249 243 237 94 60 63 113 127 172 211 263 263 261 266 258 248 252 245 235 234
167 169 172 169 171 170 169 173 175 177 179 187 218 222 215 239 241 243 245 207 207 239 244 257 257 223 230 237 243 220 203 219 213 205 214 219 228 231 223 240 256 222 216 224 240 236 214 216 242 239 218 215 219 219 227 235 229 225 229 234 239 244 248 249 244 242 247 255 260 250 232 84 60 56 113 101 132 220 251 267 271 275 268 256 251 238 232 239
166 167 167 167 168 165 166 170 174 178 180 192 228 231 207 210 207 244 246 205 198 214 223 258 259 217 233 239 243 268 240 228 223 214 219 222 224 245 224 208 225 237 218 220 257 249 224 224 239 246 233 225 222 214 222 240 247 238 232 238 244 240 241 245 238 233 235 242 257 256 202 96 86 84 121 122 246 235 244 265 268 268 257 239 221 205 213 226
170 169 164 167 166 162 164 168 172 178 190 209 226 224 209 204 193 286 248 196 180 191 207 246 257 228 254 242 238 271 252 225 233 232 213 216 220 240 233 210 204 239 224 236 253 233 228 242 245 249 246 239 233 228 239 256 261 252 246 251 252 256 278 280 276 271 247 244 263 269 123 116 135 159 160 189 241 243 252 279 262 237 171 177 177 173 181 193
175 173 161 163 163 161 163 169 180 191 207 216 206 205 215 207 200 232 211 185 182 191 205 224 234 229 248 250 241 273 253 226 245 253 209 279 254 249 248 220 211 222 231 246 250 232 229 235 244 249 245 247 248 250 262 268 265 266 276 294 283 288 319 316 316 331 312 264 272 321 57 117 150 194 234 244 255 251 258 286 272 265 160 164 167 162 158 168
181 173 160 163 165 167 168 169 182 198 207 211 201 203 199 184 193 206 198 196 195 199 213 212 223 226 228 247 237 234 251 235 240 250 357 319 286 216 249 224 219 228 229 232 233 229 228 229 245 254 249 255 252 250 261 260 265 283 291 314 315 287 287 289 291 318 336 309 284 107 81 162 182 215 252 269 291 272 221 241 224 241 244 211 233 209 161 188
175 155 157 168 169 172 172 161 160 192 204 198 190 197 187 174 195 191 150 171 185 182 213 208 220 226 216 250 249 236 252 245 229 254 316 347 10 287 237 190 203 224 220 225 234 235 238 240 245 248 252 264 245 246 284 271 265 283 293 310 312 291 287 295 295 310 357 327 309 83 121 161 183 204 238 263 292 292 226 256 223 239 264 262 273 280 303 295
160 151 161 173 175 180 176 149 130 172 192 182 175 188 186 181 205 195 165 149 185 194 207 203 219 237 229 253 261 244 251 238 225 247 269 264 62 10 260 181 190 212 214 223 233 231 239 248 246 246 262 290 313 306 324 294 264 265 287 309 315 310 306 313 329 3 14 320 320 28 148 158 162 186 226 249 271 278 287 307 287 272 288 277 279 292 308 300
154 159 168 169 173 186 182 159 148 170 174 169 164 178 189 187 180 184 175 152 187 208 216 205 208 232 236 245 255 256 265 252 231 228 244 254 240 235 278 262 241 255 257 250 238 224 235 250 251 254 268 291 305 289 291 288 269 261 262 277 308 335 321 321 2 26 10 296 322 142 160 155 159 200 227 241 260 285 313 326 321 307 300 291 297 307 307 301
143 148 166 167 167 186 184 173 180 175 160 168 175 168 179 178 142 162 178 166 181 189 191 205 210 234 232 228 243 255 269 273 251 236 241 242 244 262 249 200 205 294 300 268 245 234 234 248 248 261 273 270 275 283 276 248 266 267 250 258 328 355 319 318 348 1 356 186 157 160 169 165 181 208 222 237 255 278 280 225 228 276 292 300 307 313 311 308
136 134 160 162 145 158 172 165 166 161 149 161 172 160 166 175 162 162 164 144 175 181 172 237 232 238 227 227 246 246 252 262 250 256 258 233 229 289 259 202 203 235 248 253 252 240 230 254 261 273 281 268 251 269 255 228 246 256 179 111 55 47 21 35 88 359 25 154 154 172 195 194 201 212 218 236 254 260 257 238 230 254 280 295 302 310 315 317
135 128 146 143 124 130 145 148 152 158 153 144 142 142 155 167 161 159 153 129 183 210 217 257 239 221 216 232 238 237 243 237 219 227 273 241 238 272 264 251 251 227 197 230 257 259 256 264 277 294 283 266 256 250 224 208 238 184 115 90 55 59 58 69 160 166 154 165 161 171 204 216 223 228 228 242 262 275 278 260 249 263 282 296 302 309 313 318
132 120 133 136 131 134 134 140 146 148 145 137 146 145 140 155 158 160 177 167 72 211 195 214 232 232 240 232 224 243 248 233 220 229 269 241 240 257 256 279 289 266 229 243 264 283 302 285 288 308 291 270 260 254 220 198 236 233 106 48 24 51 44 8 265 231 201 183 174 169 180 210 228 242 246 248 265 283 288 284 283 283 287 296 306 307 307 318
129 128 135 129 132 137 133 140 152 149 139 135 151 146 130 162 173 155 178 180 153 163 198 207 204 204 224 227 211 212 216 216 218 223 228 234 249 258 256 264 270 270 279 280 277 291 316 312 296 296 289 275 260 256 233 204 215 236 42 11 24 61 72 78 259 260 237 183 168 161 172 210 238 258 258 247 256 269 269 280 295 289 276 285 294 293 295 313
Height
3086 3086 3087 3088 3088 3088 3089 3089 3089 3089 3090 3090 3090 3091 3092 3092 3093 3094 3095 3096 3097 3097 3098 3098 3099 3099 3099 3099 3100 3101 3101 3102 3102 3102 3103 3104 3105 3106 3107 3108 3110 3111 3113 3114 3114 3115 3116 3117 3118 3119 3120 3121 3122 3123 3125 3127 3128 3130 3130 3130 3129 3128 3127 3127 3125 3125 3126 3125 3125 3126 3126 3128 3129 3129 3129 3129 3128 3129 3130 3127 3122 3124 3127 3127 3128 3129 3130 3131
3084 3085 3085 3086 3086 3087 3087 3088 3088 3088 3088 3088 3089 3089 3090 3091 3092 3092 3093 3094 3095 3096 3097 3097 3097 3097 3097 3098 3098 3099 3099 3100 3100 3101 3102 3103 3103 3105 3106 3107 3109 3110 3112 3113 3114 3115 3115 3116 3117 3118 3119 3121 3123 3124 3125 3127 3127 3128 3129 3129 3127 3126 3127 3126 3124 3126 3126 3124 3125 3127 3127 3128 3129 3129 3129 3128 3128 3129 3129 3124 3121 3124 3127 3128 3128 3129 3129 3130
3082 3083 3083 3084 3085 3085 3086 3086 3086 3087 3087 3087 3088 3088 3089 3089 3090 3091 3092 3093 3093 3094 3095 3096 3096 3096 3096 3096 3097 3097 3098 3098 3099 3099 3100 3101 3102 3103 3104 3106 3107 3109 3110 3111 3112 3113 3114 3116 3117 3118 3119 3121 3123 3124 3126 3127 3126 3126 3127 3126 3125 3125 3126 3125 3125 3126 3124 3124 3125 3127 3127 3127 3128 3129 3128 3128 3128 3129 3127 3122 3121 3123 3126 3128 3127 3127 3128 3129
3080 3080 3081 3082 3083 3084 3084 3085 3085 3085 3085 3086 3086 3087 3088 3088 3089 3089 3090 3091 3092 3093 3093 3094 3094 3094 3095 3095 3096 3096 3097 3097 3097 3097 3099 3099 3100 3102 3103 3104 3106 3107 3109 3110 3111 3112 3113 3115 3117 3118 3119 3121 3123 3125 3126 3126 3125 3126 3126 3124 3124 3125 3125 3125 3125 3124 3123 3123 3124 3125 3126 3127 3128 3127 3127 3129 3128 3128 3126 3121 3120 3121 3124 3126 3126 3126 3127 3128
3078 3078 3079 3080 3081 3082 3082 3083 3083 3084 3084 3084 3085 3085 3086 3087 3087 3088 3088 3089 3090 3091 3092 3093 3093 3093 3093 3094 3094 3095 3096 3096 3094 3096 3097 3098 3099 3100 3102 3103 3104 3106 3108 3109 3110 3112 3112 3115 3117 3118 3119 3121 3123 3124 3124 3125 3125 3125 3125 3123 3123 3124 3125 3125 3123 3122 3122 3122 3123 3124 3126 3126 3127 3126 3127 3129 3128 3127 3124 3121 3121 3121 3123 3125 3125 3126 3126 3127
3075 3076 3077 3078 3079 3080 3080 3081 3082 3082 3083 3083 3083 3084 3084 3085 3086 3086 3087 3088 3089 3090 3090 3091 3091 3092 3092 3092 3093 3094 3095 3094 3092 3094 3096 3097 3098 3099 3100 3102 3103 3105 3106 3108 3110 3111 3112 3114 3116 3118 3119 3120 3122 3123 3123 3124 3124 3124 3124 3123 3123 3123 3124 3124 3123 3122 3121 3122 3123 3124 3125 3125 3125 3126 3127 3128 3128 3128 3122 3120 3122 3121 3122 3124 3124 3126 3126 3126
3073 3074 3075 3076 3077 3078 3079 3079 3080 3081 3081 3082 3082 3082 3083 3083 3084 3084 3085 3086 3087 3088 3089 3089 3090 3090 3091 3091 3092 3092 3093 3092 3091 3093 3095 3096 3097 3098 3099 3100 3102 3103 3105 3107 3109 3110 3112 3113 3115 3117 3119 3120 3121 3122 3122 3123 3123 3123 3122 3122 3123 3123 3123 3123 3123 3122 3121 3121 3122 3123 3123 3124 3125 3125 3127 3127 3127 3129 3123 3119 3121 3122 3122 3123 3124 3125 3126 3126
3071 3072 3073 3074 3075 3076 3077 3078 3079 3080 3080 3080 3080 3081 3081 3082 3082 3083 3083 3084 3085 3086 3087 3088 3088 3089 3089 3090 3091 3091 3092 3090 3090 3093 3094 3095 3096 3097 3098 3099 3101 3102 3104 3106 3108 3110 3111 3112 3114 3117 3118 3119 3120 3121 3121 3122 3121 3121 3121 3121 3121 3121 3122 3121 3121 3121 3120 3121 3121 3122 3122 3122 3124 3124 3125 3126 3126 3127 3125 3120 3120 3121 3122 3124 3124 3125 3125 3125
3069 3069 3071 3072 3073 3074 3075 3076 3077 3078 3079 3079 3079 3079 3080 3080 3081 3081 3082 3082 3083 3084 3085 3086 3087 3088 3088 3089 3089 3090 3090 3088 3089 3092 3093 3094 3095 3096 3097 3098 3100 3101 3103 3105 3107 3109 3110 3112 3114 3116 3117 3118 3119 3120 3120 3120 3120 3119 3119 3120 3120 3120 3121 3120 3120 3120 3120 3120 3120 3121 3121 3121 3123 3123 3123 3124 3124 3125 3125 3122 3121 3121 3121 3124 3125 3125 3125 3125
3066 3067 3068 3070 3071 3072 3073 3074 3076 3077 3077 3077 3077 3078 3078 3079 3079 3080 3080 3081 3081 3082 3083 3084 3085 3086 3087 3087 3088 3089 3088 3087 3088 3091 3091 3092 3094 3095 3096 3097 3099 3100 3102 3104 3106 3108 3110 3112 3115 3116 3116 3116 3117 3117 3118 3118 3118 3117 3118 3119 3119 3119 3119 3119 3119 3119 3119 3119 3120 3120 3120 3120 3121 3122 3121 3121 3122 3123 3124 3124 3123 3122 3121 3123 3124 3125 3125 3125
3064 3065 3066 3067 3069 3070 3071 3072 3074 3075 3075 3075 3076 3076 3077 3077 3078 3078 3079 3079 3080 3081 3082 3083 3083 3084 3085 3085 3087 3087 3086 3087 3087 3089 3091 3091 3092 3094 3095 3096 3098 3100 3101 3103 3105 3107 3109 3112 3114 3115 3115 3115 3115 3116 3116 3116 3116 3117 3117 3117 3117 3117 3117 3117 3117 3117 3118 3117 3118 3118 3119 3119 3120 3120 3119 3119 3120 3122 3122 3123 3123 3122 3120 3121 3124 3124 3124 3124
3062 3063 3064 3065 3067 3068 3069 3071 3072 3073 3073 3074 3074 3075 3075 3076 3076 3077 3077 3078 3079 3079 3080 3081 3082 3083 3083 3084 3085 3085 3085 3086 3086 3088 3090 3090 3091 3093 3094 3095 3097 3099 3101 3104 3105 3106 3107 3110 3111 3111 3113 3113 3114 3116 3115 3114 3115 3116 3116 3115 3115 3115 3114 3114 3114 3115 3116 3116 3117 3118 3117 3117 3117 3117 3117 3116 3118 3121 3121 3121 3121 3119 3119 3121 3123 3123 3123 3123
3060 3061 3062 3063 3065 3066 3067 3069 3070 3071 3072 3072 3072 3073 3074 3074 3075 3076 3076 3077 3077 3078 3079 3080 3081 3081 3082 3082 3083 3083 3084 3086 3086 3087 3089 3089 3091 3092 3093 3095 3096 3098 3099 3103 3105 3105 3105 3106 3107 3108 3110 3111 3113 3114 3112 3113 3114 3114 3114 3114 3114 3113 3112 3111 3112 3113 3114 3115 3116 3117 3116 3115 3114 3114 3116 3115 3116 3119 3119 3120 3119 3115 3118 3121 3121 3122 3122 3122
3058 3059 3060 3061 3062 3064 3066 3067 3068 3069 3070 3070 3071 3071 3072 3073 3073 3074 3075 3076 3076 3077 3078 3078 3079 3080 3081 3081 3082 3082 3083 3084 3085 3087 3088 3089 3090 3091 3092 3094 3095 3097 3098 3100 3102 3102 3103 3104 3105 3106 3107 3109 3111 3111 3111 3112 3113 3113 3113 3113 3112 3111 3108 3107 3109 3111 3113 3114 3115 3116 3115 3113 3111 3111 3113 3114 3114 3116 3118 3119 3117 3114 3118 3120 3120 3121 3121 3121
3056 3057 3058 3059 3060 3062 3064 3065 3067 3067 3068 3069 3069 3070 3071 3071 3072 3073 3074 3075 3075 3076 3077 3077 3078 3078 3079 3081 3080 3081 3083 3083 3084 3085 3086 3088 3089 3089 3091 3093 3094 3096 3097 3098 3099 3100 3101 3103 3104 3105 3106 3107 3109 3110 3111 3111 3111 3111 3111 3110 3110 3109 3106 3104 3107 3109 3112 3112 3113 3115 3114 3111 3109 3109 3110 3110 3112 3115 3116 3119 3117 3114 3116 3118 3119 3120 3120 3120
3054 3055 3056 3057 3058 3060 3062 3063 3065 3065 3066 3067 3068 3068 3069 3070 3071 3072 3073 3073 3074 3075 3076 3076 3077 3077 3078 3079 3078 3079 3081 3082 3083 3084 3085 3086 3088 3088 3090 3091 3093 3095 3096 3097 3098 3099 3100 3101 3103 3104 3106 3108 3108 3109 3110 3110 3109 3109 3109 3108 3107 3107 3105 3104 3105 3107 3109 3110 3111 3112 3113 3111 3109 3109 3108 3109 3112 3113 3115 3118 3117 3113 3113 3116 3117 3118 3120 3119
3053 3054 3055 3055 3057 3058 3060 3062 3063 3064 3064 3065 3066 3067 3068 3069 3070 3071 3071 3072 3073 3073 3074 3075 3075 3076 3076 3076 3076 3078 3080 3081 3081 3083 3084 3085 3086 3088 3089 3090 3092 3093 3095 3096 3097 3098 3099 3100 3102 3103 3104 3106 3107 3109 3108 3107 3106 3106 3106 3107 3106 3105 3104 3103 3103 3105 3107 3108 3109 3110 3111 3110 3108 3109 3110 3109 3111 3113 3114 3116 3117 3114 3111 3113 3116 3116 3118 3118
3051 3052 3053 3054 3055 3056 3058 3060 3061 3062 3063 3064 3065 3066 3067 3068 3069 3069 3070 3071 3071 3072 3073 3073 3073 3074 3075 3075 3076 3078 3078 3078 3080 3081 3083 3084 3085 3088 3089 3090 3091 3092 3094 3095 3096 3097 3098 3099 3101 3102 3103 3104 3105 3106 3105 3104 3104 3103 3103 3104 3105 3104 3102 3101 3102 3103 3105 3107 3108 3109 3110 3109 3108 3109 3110 3109 3110 3112 3113 3114 3116 3116 3112 3111 3114 3115 3116 3116
3049 3050 3051 3052 3053 3055 3057 3058 3059 3060 3061 3063 3064 3065 3066 3067 3067 3068 3068 3069 3069 3071 3071 3070 3071 3073 3074 3073 3075 3078 3077 3077 3079 3080 3081 3083 3084 3087 3088 3089 3090 3092 3094 3095 3095 3096 3098 3099 3100 3101 3101 3102 3102 3103 3103 3102 3102 3101 3101 3101 3101 3101 3101 3101 3101 3102 3104 3106 3107 3108 3109 3109 3108 3108 3109 3110 3110 3110 3111 3112 3114 3115 3112 3108 3110 3113 3114 3114
3047 3049 3050 3050 3051 3053 3055 3056 3057 3059 3060 3061 3062 3064 3065 3065 3067 3067 3066 3066 3067 3069 3069 3068 3069 3071 3073 3074 3075 3076 3075 3076 3078 3079 3080 3081 3083 3085 3087 3088 3090 3092 3093 3095 3095 3096 3097 3098 3098 3098 3099 3100 3100 3101 3102 3102 3101 3100 3100 3098 3098 3098 3099 3101 3101 3100 3103 3105 3105 3107 3108 3108 3108 3108 3108 3109 3109 3109 3109 3110 3111 3113 3112 3108 3108 3109 3111 3112
3046 3047 3048 3049 3050 3051 3053 3055 3056 3057 3058 3059 3061 3062 3063 3063 3065 3064 3064 3065 3065 3066 3067 3067 3068 3070 3073 3075 3076 3074 3074 3076 3077 3078 3079 3080 3082 3084 3085 3087 3089 3090 3091 3094 3096 3096 3096 3096 3096 3096 3097 3098 3099 3100 3101 3100 3099 3100 3101 3100 3099 3098 3098 3100 3100 3100 3101 3103 3104 3106 3107 3107 3108 3107 3107 3107 3108 3108 3107 3108 3108 3110 3112 3110 3109 3108 3109 3109
3044 3045 3046 3047 3048 3050 3052 3053 3054 3055 3057 3058 3059 3060 3061 3062 3063 3063 3063 3063 3064 3064 3065 3066 3067 3069 3071 3073 3074 3073 3074 3075 3076 3078 3078 3078 3080 3082 3084 3085 3087 3089 3090 3093 3095 3095 3095 3094 3093 3094 3096 3097 3098 3098 3099 3099 3099 3100 3101 3101 3100 3099 3099 3100 3101 3101 3101 3102 3103 3105 3105 3106 3106 3105 3105 3105 3106 3106 3106 3106 3106 3108 3109 3109 3109 3109 3110 3108
3042 3043 3044 3045 3047 3048 3050 3051 3053 3054 3055 3056 3058 3058 3059 3060 3061 3062 3062 3062 3062 3062 3063 3064 3066 3068 3069 3070 3071 3071 3073 3074 3076 3077 3076 3077 3079 3081 3083 3084 3086 3088 3090 3091 3092 3093 3093 3090 3089 3093 3095 3095 3096 3097 3098 3098 3098 3098 3100 3100 3099 3099 3100 3099 3099 3100 3099 3100 3101 3104 3104 3103 3103 3103 3103 3103 3104 3104 3104 3105 3105 3105 3106 3107 3107 3108 3109 3108
3040 3042 3043 3044 3045 3047 3049 3050 3051 3053 3054 3055 3056 3057 3058 3059 3060 3061 3061 3061 3061 3061 3061 3063 3065 3066 3067 3068 3069 3069 3071 3073 3075 3076 3074 3075 3079 3080 3082 3084 3085 3087 3088 3089 3090 3091 3090 3088 3089 3092 3092 3093 3094 3096 3097 3098 3097 3098 3098 3099 3098 3099 3099 3099 3098 3098 3098 3098 3100 3102 3103 3101 3101 3101 3101 3101 3102 3102 3103 3103 3103 3103 3104 3105 3106 3106 3107 3107
3039 3040 3041 3042 3044 3046 3047 3049 3050 3051 3052 3053 3055 3056 3057 3058 3059 3060 3060 3060 3060 3059 3060 3062 3063 3065 3065 3066 3067 3067 3069 3070 3073 3075 3072 3073 3078 3080 3081 3083 3084 3085 3086 3087 3089 3089 3088 3088 3090 3091 3091 3092 3094 3095 3096 3097 3097 3097 3096 3097 3098 3098 3098 3098 3098 3098 3097 3095 3097 3100 3100 3098 3098 3098 3097 3098 3098 3098 3099 3100 3101 3102 3102 3103 3104 3104 3105 3106
3037 3039 3040 3041 3043 3044 3046 3047 3049 3050 3051 3052 3053 3054 3056 3057 3058 3059 3059 3059 3058 3058 3059 3060 3061 3062 3062 3064 3064 3066 3069 3068 3069 3073 3072 3072 3076 3079 3081 3082 3082 3083 3085 3086 3087 3087 3087 3087 3089 3090 3091 3092 3093 3094 3095 3095 3096 3095 3094 3095 3096 3097 3097 3097 3098 3097 3095 3093 3096 3098 3096 3094 3095 3094 3094 3095 3094 3094 3095 3096 3098 3100 3101 3102 3102 3103 3103 3104
3036 3037 3038 3040 3042 3043 3045 3046 3047 3048 3050 3051 3052 3053 3055 3056 3058 3058 3059 3059 3056 3055 3057 3058 3059 3060 3061 3063 3063 3065 3067 3066 3066 3070 3071 3071 3074 3077 3078 3080 3081 3082 3083 3085 3084 3084 3085 3086 3087 3089 3090 3091 3092 3092 3093 3094 3094 3093 3093 3094 3094 3095 3096 3096 3097 3097 3095 3095 3096 3096 3096 3094 3092 3093 3094 3093 3092 3092 3093 3094 3095 3098 3100 3100 3099 3100 3100 3100
3034 3036 3037 3039 3040 3042 3043 3045 3046 3047 3048 3049 3051 3052 3054 3056 3057 3058 3059 3058 3054 3054 3055 3056 3057 3059 3061 3061 3061 3063 3065 3065 3066 3068 3070 3071 3072 3075 3076 3077 3080 3081 3082 3083 3082 3082 3083 3084 3086 3087 3089 3090 3090 3090 3091 3092 3092 3091 3092 3092 3092 3093 3095 3096 3096 3095 3096 3096 3094 3093 3095 3093 3089 3091 3092 3092 3091 3090 3092 3094 3094 3096 3097 3095 3094 3095 3096 3097
3033 3035 3036 3037 3039 3041 3042 3044 3045 3046 3047 3049 3050 3052 3053 3055 3056 3057 3058 3056 3052 3052 3054 3055 3056 3058 3060 3060 3061 3063 3065 3065 3066 3067 3070 3071 3071 3074 3075 3076 3078 3079 3081 3081 3080 3080 3082 3083 3084 3086 3088 3088 3088 3089 3089 3090 3090 3090 3091 3091 3091 3092 3094 3096 3095 3094 3095 3093 3090 3091 3094 3090 3086 3088 3090 3090 3089 3088 3089 3090 3091 3092 3092 3091 3092 3094 3096 3097
3032 3033 3035 3036 3038 3040 3041 3042 3043 3045 3047 3048 3050 3052 3053 3055 3055 3056 3057 3054 3050 3051 3052 3054 3056 3057 3058 3060 3061 3062 3064 3065 3066 3067 3069 3071 3071 3072 3074 3076 3077 3077 3078 3079 3079 3080 3081 3082 3083 3084 3085 3086 3087 3087 3088 3088 3089 3090 3090 3090 3091 3092 3094 3095 3094 3094 3094 3089 3087 3089 3091 3090 3086 3086 3087 3088 3088 3087 3086 3086 3087 3090 3090 3091 3093 3094 3096 3097
3031 3032 3034 3035 3037 3038 3040 3041 3042 3043 3046 3048 3050 3052 3053 3054 3055 3055 3053 3051 3049 3050 3051 3053 3055 3056 3057 3059 3060 3061 3063 3065 3065 3066 3068 3069 3071 3071 3072 3074 3075 3076 3076 3076 3077 3079 3080 3081 3082 3083 3083 3084 3085 3085 3085 3087 3088 3089 3090 3091 3091 3091 3092 3092 3092 3093 3091 3087 3086 3087 3088 3087 3086 3085 3086 3087 3086 3085 3085 3085 3087 3089 3090 3092 3093 3093 3095 3094
3030 3031 3032 3034 3036 3037 3038 3040 3041 3043 3045 3047 3049 3051 3052 3054 3054 3052 3049 3048 3048 3049 3050 3052 3054 3055 3056 3057 3058 3059 3061 3063 3064 3065 3066 3067 3069 3070 3071 3072 3073 3074 3074 3074 3076 3077 3078 3079 3080 3081 3081 3082 3083 3083 3083 3084 3086 3088 3088 3089 3090 3089 3088 3088 3087 3088 3086 3084 3085 3086 3085 3084 3085 3085 3085 3085 3085 3083 3084 3086 3087 3088 3089 3090 3091 3092 3093 3091
3029 3030 3032 3033 3035 3036 3038 3039 3041 3043 3045 3047 3049 3050 3052 3053 3051 3048 3047 3047 3047 3047 3049 3051 3052 3054 3056 3056 3057 3057 3059 3061 3062 3064 3065 3066 3067 3068 3069 3070 3072 3073 3072 3073 3074 3074 3076 3077 3077 3078 3079 3080 3081 3081 3081 3081 3083 3086 3086 3087 3087 3086 3086 3085 3085 3084 3083 3083 3084 3085 3085 3083 3084 3085 3084 3084 3084 3083 3083 3083 3085 3086 3087 3088 3088 3089 3090 3089
3028 3029 3031 3032 3034 3036 3037 3039 3041 3043 3044 3047 3048 3050 3052 3051 3048 3046 3046 3046 3046 3047 3049 3050 3052 3054 3055 3055 3055 3056 3058 3059 3061 3063 3064 3065 3066 3067 3068 3069 3070 3072 3072 3072 3072 3072 3073 3074 3074 3075 3076 3077 3079 3080 3080 3080 3081 3083 3084 3085 3084 3083 3083 3081 3082 3083 3084 3084 3084 3084 3084 3082 3082 3084 3084 3084 3083 3082 3081 3082 3084 3086 3088 3089 3088 3088 3088 3088
3027 3029 3030 3032 3033 3035 3037 3039 3040 3042 3044 3046 3047 3049 3050 3048 3046 3046 3045 3045 3046 3049 3050 3051 3052 3053 3054 3054 3054 3054 3056 3057 3059 3061 3062 3063 3064 3065 3066 3067 3068 3070 3071 3071 3070 3071 3072 3072 3072 3074 3075 3076 3077 3078 3079 3079 3079 3079 3082 3082 3081 3081 3081 3079 3080 3082 3083 3085 3084 3082 3082 3080 3080 3082 3083 3083 3082 3081 3083 3085 3087 3088 3088 3089 3089 3087 3086 3087
3027 3028 3030 3031 3033 3035 3036 3038 3040 3042 3043 3045 3047 3048 3048 3046 3045 3045 3045 3045 3047 3049 3050 3051 3052 3052 3052 3052 3053 3053 3054 3056 3058 3059 3059 3061 3062 3063 3064 3065 3066 3067 3068 3069 3069 3070 3071 3071 3072 3073 3073 3074 3075 3077 3078 3078 3077 3077 3079 3079 3079 3080 3080 3079 3080 3081 3082 3083 3082 3080 3080 3081 3081 3081 3081 3082 3084 3084 3084 3086 3087 3087 3087 3087 3087 3085 3085 3086
3026 3028 3029 3030 3032 3034 3036 3038 3039 3041 3043 3045 3046 3046 3046 3045 3045 3045 3045 3046 3047 3049 3050 3050 3050 3050 3050 3049 3051 3053 3053 3055 3057 3058 3058 3059 3060 3060 3062 3063 3064 3065 3067 3068 3068 3068 3069 3069 3070 3071 3071 3073 3075 3076 3076 3077 3077 3077 3077 3078 3079 3079 3078 3078 3079 3079 3080 3080 3078 3077 3078 3079 3079 3080 3081 3083 3085 3086 3085 3085 3086 3086 3086 3085 3085 3084 3084 3085
3025 3027 3028 3030 3032 3034 3035 3037 3039 3041 3043 3044 3044 3044 3044 3044 3045 3045 3045 3046 3047 3049 3050 3049 3049 3049 3048 3047 3048 3051 3052 3054 3057 3058 3057 3058 3058 3058 3060 3062 3063 3064 3066 3067 3068 3068 3069 3069 3069 3069 3070 3071 3074 3075 3074 3075 3076 3076 3077 3078 3078 3077 3077 3077 3078 3079 3079 3077 3076 3074 3075 3078 3080 3081 3083 3083 3083 3084 3085 3085 3085 3084 3084 3084 3083 3083 3083 3083
3025 3026 3028 3029 3031 3033 3035 3037 3039 3040 3042 3043 3044 3045 3044 3043 3044 3045 3045 3046 3048 3050 3050 3049 3049 3049 3048 3047 3048 3050 3051 3053 3056 3057 3058 3058 3058 3058 3060 3061 3060 3062 3064 3066 3067 3067 3068 3069 3068 3068 3069 3070 3073 3073 3073 3073 3074 3075 3076 3076 3076 3076 3076 3076 3076 3077 3076 3075 3075 3073 3073 3078 3082 3083 3083 3082 3082 3083 3084 3084 3083 3083 3083 3083 3082 3081 3081 3080
3024 3025 3027 3029 3031 3032 3034 3036 3038 3040 3041 3043 3044 3045 3045 3045 3045 3045 3045 3047 3048 3049 3049 3049 3050 3050 3049 3049 3049 3050 3051 3053 3054 3056 3058 3058 3057 3058 3060 3060 3060 3061 3062 3064 3066 3066 3067 3068 3068 3068 3069 3070 3071 3071 3072 3072 3072 3073 3074 3074 3074 3074 3075 3075 3074 3075 3075 3073 3073 3072 3073 3078 3082 3082 3083 3083 3082 3082 3082 3082 3082 3081 3081 3081 3081 3080 3079 3079
3024 3025 3027 3028 3030 3032 3034 3036 3037 3039 3041 3042 3043 3044 3044 3045 3045 3045 3045 3046 3047 3048 3048 3048 3049 3050 3050 3050 3050 3051 3053 3053 3053 3055 3057 3057 3057 3059 3060 3060 3061 3062 3062 3063 3065 3065 3065 3067 3068 3068 3069 3069 3069 3070 3071 3071 3072 3072 3073 3073 3074 3073 3074 3073 3071 3072 3073 3072 3072 3072 3074 3079 3081 3082 3083 3083 3083 3082 3081 3081 3081 3080 3080 3080 3080 3079 3078 3078
3023 3025 3027 3029 3030 3032 3034 3036 3037 3039 3041 3042 3043 3043 3042 3044 3045 3046 3045 3046 3047 3049 3049 3048 3049 3050 3051 3051 3051 3052 3053 3053 3053 3055 3055 3056 3057 3058 3059 3060 3062 3063 3064 3064 3064 3064 3065 3067 3068 3068 3069 3069 3069 3070 3070 3070 3070 3071 3072 3072 3071 3071 3072 3072 3071 3071 3071 3070 3071 3072 3075 3080 3081 3081 3083 3084 3083 3082 3081 3080 3080 3079 3079 3079 3079 3078 3078 3077
3023 3025 3027 3029 3030 3032 3034 3036 3038 3039 3040 3041 3042 3042 3042 3044 3046 3046 3046 3047 3048 3048 3049 3050 3050 3051 3052 3052 3053 3053 3053 3053 3054 3055 3055 3055 3057 3058 3058 3060 3061 3062 3063 3064 3065 3065 3066 3067 3068 3068 3068 3067 3068 3068 3068 3069 3070 3070 3070 3069 3069 3069 3071 3073 3074 3073 3072 3072 3072 3073 3076 3081 3081 3080 3081 3083 3083 3082 3081 3080 3079 3079 3079 3079 3078 3078 3078 3078
3023 3025 3027 3028 3030 3032 3033 3035 3037 3039 3040 3040 3041 3042 3043 3044 3045 3046 3046 3047 3048 3048 3049 3050 3051 3051 3052 3052 3053 3053 3054 3055 3055 3055 3055 3056 3057 3058 3059 3059 3060 3061 3062 3064 3065 3065 3066 3067 3068 3067 3067 3068 3068 3067 3067 3069 3070 3070 3069 3069 3070 3070 3072 3074 3074 3073 3073 3075 3075 3074 3078 3081 3082 3081 3080 3080 3081 3081 3081 3080 3079 3079 3079 3078 3078 3078 3078 3077
3023 3025 3027 3029 3030 3032 3034 3035 3036 3038 3039 3040 3041 3042 3043 3043 3044 3044 3045 3046 3047 3048 3049 3050 3050 3051 3051 3053 3053 3053 3054 3055 3056 3056 3056 3057 3058 3059 3059 3060 3060 3061 3062 3063 3064 3064 3065 3067 3067 3067 3068 3069 3067 3066 3067 3067 3069 3070 3070 3071 3071 3071 3072 3073 3073 3072 3073 3077 3077 3075 3077 3081 3083 3082 3079 3079 3080 3080 3080 3080 3080 3079 3078 3077 3077 3077 3077 3077
3022 3024 3026 3028 3030 3032 3033 3034 3035 3037 3039 3040 3040 3042 3043 3043 3044 3044 3045 3046 3047 3048 3048 3049 3050 3051 3051 3052 3053 3053 3054 3055 3055 3056 3057 3057 3058 3059 3059 3060 3060 3060 3062 3063 3063 3063 3064 3065 3066 3067 3068 3068 3066 3066 3068 3067 3068 3069 3071 3072 3072 3072 3072 3071 3072 3072 3073 3077 3078 3076 3076 3080 3083 3081 3079 3078 3079 3080 3080 3080 3080 3079 3078 3077 3077 3077 3077 3076
3023 3024 3026 3028 3030 3032 3033 3034 3036 3038 3038 3039 3040 3041 3042 3043 3044 3044 3045 3046 3046 3047 3049 3049 3049 3051 3051 3051 3052 3053 3053 3053 3054 3055 3057 3057 3058 3059 3060 3060 3060 3060 3061 3062 3062 3063 3064 3065 3065 3066 3067 3067 3067 3067 3068 3068 3068 3069 3070 3072 3071 3070 3070 3070 3071 3073 3074 3076 3079 3079 3078 3080 3081 3080 3078 3077 3078 3079 3080 3079 3079 3079 3078 3077 3077 3077 3076 3076
3023 3024 3027 3028 3030 3032 3033 3034 3037 3037 3038 3039 3040 3041 3042 3043 3044 3044 3045 3046 3047 3047 3048 3049 3049 3050 3051 3051 3052 3053 3053 3052 3053 3054 3055 3056 3057 3058 3059 3060 3060 3060 3061 3062 3062 3062 3063 3064 3065 3065 3065 3066 3067 3067 3068 3068 3069 3070 3069 3069 3070 3069 3069 3070 3071 3072 3074 3076 3078 3080 3079 3079 3078 3077 3077 3077 3078 3079 3079 3079 3079 3078 3077 3077 3077 3076 3076 3076
3022 3023 3026 3028 3030 3031 3033 3034 3036 3037 3037 3038 3039 3040 3042 3043 3044 3045 3045 3046 3048 3048 3049 3049 3049 3050 3051 3051 3052 3053 3053 3053 3053 3053 3054 3055 3056 3058 3058 3059 3060 3060 3061 3062 3061 3061 3062 3063 3064 3064 3065 3065 3066 3067 3067 3068 3069 3069 3068 3067 3069 3070 3070 3071 3071 3072 3074 3075 3076 3078 3078 3077 3077 3077 3077 3077 3077 3077 3078 3078 3077 3077 3076 3076 3076 3076 3076 3076
3022 3023 3026 3029 3030 3031 3033 3034 3036 3037 3037 3038 3039 3040 3042 3043 3044 3045 3046 3047 3048 3048 3049 3050 3049 3050 3051 3052 3052 3053 3053 3052 3053 3053 3054 3055 3057 3058 3059 3058 3059 3059 3059 3060 3060 3060 3062 3063 3063 3064 3065 3065 3066 3066 3066 3067 3068 3067 3067 3067 3069 3070 3071 3071 3071 3072 3073 3074 3075 3076 3076 3076 3076 3076 3077 3077 3077 3077 3077 3076 3076 3076 3075 3075 3075 3076 3075 3075
3022 3023 3027 3030 3030 3032 3033 3035 3036 3037 3037 3038 3039 3040 3042 3043 3044 3045 3046 3046 3047 3048 3049 3049 3049 3050 3050 3051 3052 3053 3052 3052 3053 3054 3054 3055 3057 3058 3058 3058 3059 3059 3059 3060 3060 3060 3062 3063 3063 3064 3065 3065 3066 3066 3066 3067 3066 3065 3066 3067 3068 3070 3071 3071 3071 3072 3073 3073 3074 3075 3074 3074 3074 3075 3076 3076 3076 3076 3076 3076 3075 3075 3075 3075 3075 3075 3075 3075
3022 3024 3027 3030 3031 3032 3034 3035 3036 3037 3037 3038 3039 3040 3042 3043 3044 3045 3046 3045 3046 3047 3047 3047 3047 3049 3050 3051 3051 3051 3051 3051 3052 3053 3053 3054 3056 3057 3057 3058 3059 3060 3060 3060 3060 3060 3062 3063 3063 3064 3065 3065 3065 3065 3066 3066 3065 3066 3067 3068 3069 3070 3071 3071 3072 3073 3073 3073 3074 3074 3073 3073 3073 3074 3075 3075 3076 3076 3075 3075 3075 3075 3075 3075 3075 3075 3075 3075